Etusivu
METAR-TAF:

METAR-TAF

Lentoasemat :

Starkville, Mississippi, Yhdysvallat

Leveyspiiri: 33-25-59N, Pituuspiiri: 088-50-55W, korkeus merenpinnasta: 101 m

Tämänhetkinen sää

Tämä raportti tehtiin 23 minuuttia sitten, kello 23.55 UTC
Tuuli 3 kn etelästä/kaakosta
Lämpötila 12°C
Kosteus 94%
Ilmanpaine 1014 hPa
Näkyvyys: 11.3 km
selkeää

METAR: KSTF 152355Z AUTO 15003KT 7SM CLR 12/11 A2995 RMK AO2

Aika: 18:18 (00:18 UTC)


TAF: puuttuu

Säähavainnot ja -ennusteet yli 4000 lentoasemalta (METAR- ja TAF-raportit).

Käytössä olevat sääasemat on merkitty karttaan keltaisilla ja punaisilla pisteillä.

Aseta hiiri pisteen päälle nähdäksesi sääaseman nimen.

Klikkaa sitten nähdäksesi säähavainnot ja -ennusteet.

Kartan vaihtaminen: klikkaa mustalla rastilla varustettuja vihreitä pisteitä, niin voit zoomata sisään; viivalla varustettua vihreää pistettä, niin voit zoomata ulos tai vihreitä nuolia, niin pääset viereisille kartoille.


METAR-TAF: